<?xml version='1.0' encoding='UTF-8'?>
<gpx version="1.1" creator="https://www.komoot.de" xmlns="http://www.topografix.com/GPX/1/1" xmlns:xsi="http://www.w3.org/2001/XMLSchema-instance" xsi:schemaLocation="http://www.topografix.com/GPX/1/1 http://www.topografix.com/GPX/1/1/gpx.xsd">
  <metadata>
    <name>Dondena - Col Fenêtre (7B)</name>
    <author>
      <link href="https://www.komoot.de">
        <text>komoot</text>
        <type>text/html</type>
      </link>
    </author>
  </metadata>
  <trk>
    <name>Dondena - Col Fenêtre (7B)</name>
    <trkseg>
      <trkpt lat="45.616481" lon="7.555677">
        <ele>2100.466579</ele>
        <time>2022-11-14T09:01:11.807Z</time>
      </trkpt>
      <trkpt lat="45.616417" lon="7.555386">
        <ele>2100.466579</ele>
        <time>2022-11-14T09:01:37.139Z</time>
      </trkpt>
      <trkpt lat="45.616563" lon="7.555075">
        <ele>2100.466579</ele>
        <time>2022-11-14T09:02:06.552Z</time>
      </trkpt>
      <trkpt lat="45.616641" lon="7.554570">
        <ele>2100.466579</ele>
        <time>2022-11-14T09:02:49.434Z</time>
      </trkpt>
      <trkpt lat="45.616613" lon="7.554341">
        <ele>2101.491293</ele>
        <time>2022-11-14T09:03:09.591Z</time>
      </trkpt>
      <trkpt lat="45.616580" lon="7.554304">
        <ele>2101.919453</ele>
        <time>2022-11-14T09:03:14.551Z</time>
      </trkpt>
      <trkpt lat="45.616530" lon="7.554264">
        <ele>2102.504409</ele>
        <time>2022-11-14T09:03:21.377Z</time>
      </trkpt>
      <trkpt lat="45.616398" lon="7.554114">
        <ele>2104.225901</ele>
        <time>2022-11-14T09:03:43.667Z</time>
      </trkpt>
      <trkpt lat="45.616324" lon="7.553847">
        <ele>2106.276796</ele>
        <time>2022-11-14T09:04:07.904Z</time>
      </trkpt>
      <trkpt lat="45.616112" lon="7.553967">
        <ele>2108.604664</ele>
        <time>2022-11-14T09:04:43.898Z</time>
      </trkpt>
      <trkpt lat="45.616054" lon="7.553694">
        <ele>2110.642136</ele>
        <time>2022-11-14T09:05:10.211Z</time>
      </trkpt>
      <trkpt lat="45.615654" lon="7.553316">
        <ele>2115.537414</ele>
        <time>2022-11-14T09:06:18.068Z</time>
      </trkpt>
      <trkpt lat="45.615451" lon="7.553060">
        <ele>2118.301006</ele>
        <time>2022-11-14T09:06:55.015Z</time>
      </trkpt>
      <trkpt lat="45.615176" lon="7.553078">
        <ele>2122.697029</ele>
        <time>2022-11-14T09:07:33.894Z</time>
      </trkpt>
      <trkpt lat="45.615130" lon="7.553144">
        <ele>2123.824699</ele>
        <time>2022-11-14T09:07:45.071Z</time>
      </trkpt>
      <trkpt lat="45.614934" lon="7.553202">
        <ele>2127.288035</ele>
        <time>2022-11-14T09:08:27.677Z</time>
      </trkpt>
      <trkpt lat="45.614783" lon="7.553137">
        <ele>2130.016703</ele>
        <time>2022-11-14T09:08:59.445Z</time>
      </trkpt>
      <trkpt lat="45.614150" lon="7.553077">
        <ele>2140.993738</ele>
        <time>2022-11-14T09:11:24.950Z</time>
      </trkpt>
      <trkpt lat="45.613871" lon="7.552857">
        <ele>2146.507013</ele>
        <time>2022-11-14T09:12:46.257Z</time>
      </trkpt>
      <trkpt lat="45.613475" lon="7.552784">
        <ele>2153.584683</ele>
        <time>2022-11-14T09:14:32.678Z</time>
      </trkpt>
      <trkpt lat="45.612877" lon="7.552337">
        <ele>2165.830299</ele>
        <time>2022-11-14T09:17:12.243Z</time>
      </trkpt>
      <trkpt lat="45.612310" lon="7.552127">
        <ele>2176.459193</ele>
        <time>2022-11-14T09:19:27.839Z</time>
      </trkpt>
      <trkpt lat="45.612111" lon="7.551797">
        <ele>2181.989852</ele>
        <time>2022-11-14T09:20:19.368Z</time>
      </trkpt>
      <trkpt lat="45.612235" lon="7.551671">
        <ele>2183.883786</ele>
        <time>2022-11-14T09:20:42.640Z</time>
      </trkpt>
      <trkpt lat="45.612055" lon="7.551136">
        <ele>2188.394104</ele>
        <time>2022-11-14T09:21:44.655Z</time>
      </trkpt>
      <trkpt lat="45.612106" lon="7.551103">
        <ele>2189.002113</ele>
        <time>2022-11-14T09:21:52.871Z</time>
      </trkpt>
      <trkpt lat="45.612321" lon="7.551315">
        <ele>2191.838825</ele>
        <time>2022-11-14T09:22:28.906Z</time>
      </trkpt>
      <trkpt lat="45.612553" lon="7.551282">
        <ele>2194.371017</ele>
        <time>2022-11-14T09:22:59.708Z</time>
      </trkpt>
      <trkpt lat="45.612751" lon="7.550995">
        <ele>2197.433506</ele>
        <time>2022-11-14T09:23:34.613Z</time>
      </trkpt>
      <trkpt lat="45.612908" lon="7.550544">
        <ele>2201.260741</ele>
        <time>2022-11-14T09:24:18.355Z</time>
      </trkpt>
      <trkpt lat="45.613025" lon="7.549215">
        <ele>2211.724745</ele>
        <time>2022-11-14T09:26:24.411Z</time>
      </trkpt>
      <trkpt lat="45.613327" lon="7.548225">
        <ele>2220.183555</ele>
        <time>2022-11-14T09:28:16.974Z</time>
      </trkpt>
      <trkpt lat="45.613524" lon="7.547655">
        <ele>2225.081500</ele>
        <time>2022-11-14T09:29:23.065Z</time>
      </trkpt>
      <trkpt lat="45.613812" lon="7.546539">
        <ele>2234.135979</ele>
        <time>2022-11-14T09:31:16.508Z</time>
      </trkpt>
      <trkpt lat="45.613872" lon="7.546010">
        <ele>2238.215217</ele>
        <time>2022-11-14T09:32:05.931Z</time>
      </trkpt>
      <trkpt lat="45.613877" lon="7.545426">
        <ele>2242.815880</ele>
        <time>2022-11-14T09:33:00.157Z</time>
      </trkpt>
      <trkpt lat="45.613941" lon="7.545023">
        <ele>2246.554070</ele>
        <time>2022-11-14T09:33:38.980Z</time>
      </trkpt>
      <trkpt lat="45.614126" lon="7.544716">
        <ele>2250.219507</ele>
        <time>2022-11-14T09:34:17.571Z</time>
      </trkpt>
      <trkpt lat="45.614387" lon="7.544428">
        <ele>2254.483176</ele>
        <time>2022-11-14T09:35:04.778Z</time>
      </trkpt>
      <trkpt lat="45.614694" lon="7.544142">
        <ele>2259.221776</ele>
        <time>2022-11-14T09:36:00.723Z</time>
      </trkpt>
      <trkpt lat="45.614834" lon="7.543905">
        <ele>2262.027778</ele>
        <time>2022-11-14T09:36:35.819Z</time>
      </trkpt>
      <trkpt lat="45.614798" lon="7.542825">
        <ele>2274.356751</ele>
        <time>2022-11-14T09:38:51.353Z</time>
      </trkpt>
      <trkpt lat="45.614616" lon="7.541277">
        <ele>2293.948630</ele>
        <time>2022-11-14T09:42:24.176Z</time>
      </trkpt>
      <trkpt lat="45.614151" lon="7.539177">
        <ele>2315.630550</ele>
        <time>2022-11-14T09:46:34.275Z</time>
      </trkpt>
      <trkpt lat="45.614202" lon="7.538886">
        <ele>2318.477662</ele>
        <time>2022-11-14T09:47:02.423Z</time>
      </trkpt>
      <trkpt lat="45.614188" lon="7.538428">
        <ele>2322.173673</ele>
        <time>2022-11-14T09:47:44.585Z</time>
      </trkpt>
      <trkpt lat="45.614021" lon="7.538071">
        <ele>2324.085037</ele>
        <time>2022-11-14T09:48:23.083Z</time>
      </trkpt>
      <trkpt lat="45.613979" lon="7.537362">
        <ele>2327.251720</ele>
        <time>2022-11-14T09:49:23.884Z</time>
      </trkpt>
      <trkpt lat="45.613760" lon="7.536658">
        <ele>2330.680727</ele>
        <time>2022-11-14T09:50:27.054Z</time>
      </trkpt>
      <trkpt lat="45.613752" lon="7.536589">
        <ele>2330.992001</ele>
        <time>2022-11-14T09:50:32.729Z</time>
      </trkpt>
      <trkpt lat="45.613896" lon="7.536357">
        <ele>2332.372399</ele>
        <time>2022-11-14T09:50:57.515Z</time>
      </trkpt>
      <trkpt lat="45.613903" lon="7.536136">
        <ele>2333.287987</ele>
        <time>2022-11-14T09:51:15.531Z</time>
      </trkpt>
      <trkpt lat="45.613760" lon="7.535700">
        <ele>2334.965782</ele>
        <time>2022-11-14T09:51:53.930Z</time>
      </trkpt>
      <trkpt lat="45.613261" lon="7.535290">
        <ele>2337.832566</ele>
        <time>2022-11-14T09:53:01.067Z</time>
      </trkpt>
      <trkpt lat="45.612611" lon="7.533639">
        <ele>2346.179976</ele>
        <time>2022-11-14T09:55:38.095Z</time>
      </trkpt>
      <trkpt lat="45.612609" lon="7.533408">
        <ele>2347.562148</ele>
        <time>2022-11-14T09:55:58.724Z</time>
      </trkpt>
      <trkpt lat="45.612563" lon="7.532747">
        <ele>2351.536413</ele>
        <time>2022-11-14T09:56:57.233Z</time>
      </trkpt>
      <trkpt lat="45.612258" lon="7.532171">
        <ele>2355.858640</ele>
        <time>2022-11-14T09:58:06.548Z</time>
      </trkpt>
      <trkpt lat="45.612202" lon="7.531951">
        <ele>2357.259341</ele>
        <time>2022-11-14T09:58:32.601Z</time>
      </trkpt>
      <trkpt lat="45.612158" lon="7.531624">
        <ele>2359.959228</ele>
        <time>2022-11-14T09:59:04.917Z</time>
      </trkpt>
      <trkpt lat="45.611887" lon="7.531333">
        <ele>2363.955510</ele>
        <time>2022-11-14T09:59:52.231Z</time>
      </trkpt>
      <trkpt lat="45.611432" lon="7.530818">
        <ele>2370.798244</ele>
        <time>2022-11-14T10:01:14.818Z</time>
      </trkpt>
      <trkpt lat="45.611238" lon="7.530362">
        <ele>2375.200228</ele>
        <time>2022-11-14T10:02:08.726Z</time>
      </trkpt>
      <trkpt lat="45.611197" lon="7.530356">
        <ele>2375.686173</ele>
        <time>2022-11-14T10:02:14.419Z</time>
      </trkpt>
      <trkpt lat="45.611080" lon="7.530582">
        <ele>2378.005144</ele>
        <time>2022-11-14T10:02:42.783Z</time>
      </trkpt>
      <trkpt lat="45.611016" lon="7.530620">
        <ele>2378.780902</ele>
        <time>2022-11-14T10:02:53.472Z</time>
      </trkpt>
      <trkpt lat="45.610763" lon="7.530575">
        <ele>2381.252671</ele>
        <time>2022-11-14T10:03:29.589Z</time>
      </trkpt>
      <trkpt lat="45.610191" lon="7.529648">
        <ele>2389.635938</ele>
        <time>2022-11-14T10:05:24.583Z</time>
      </trkpt>
      <trkpt lat="45.609237" lon="7.527596">
        <ele>2405.350615</ele>
        <time>2022-11-14T10:09:04.555Z</time>
      </trkpt>
      <trkpt lat="45.609258" lon="7.527423">
        <ele>2406.426587</ele>
        <time>2022-11-14T10:09:20.516Z</time>
      </trkpt>
      <trkpt lat="45.609400" lon="7.527153">
        <ele>2408.496552</ele>
        <time>2022-11-14T10:09:50.864Z</time>
      </trkpt>
      <trkpt lat="45.609681" lon="7.527057">
        <ele>2411.027382</ele>
        <time>2022-11-14T10:10:28.678Z</time>
      </trkpt>
      <trkpt lat="45.609581" lon="7.526744">
        <ele>2413.616183</ele>
        <time>2022-11-14T10:11:01.116Z</time>
      </trkpt>
      <trkpt lat="45.609535" lon="7.526412">
        <ele>2416.426494</ele>
        <time>2022-11-14T10:11:33.374Z</time>
      </trkpt>
      <trkpt lat="45.609054" lon="7.525520">
        <ele>2425.778348</ele>
        <time>2022-11-14T10:13:28.612Z</time>
      </trkpt>
      <trkpt lat="45.607926" lon="7.524204">
        <ele>2442.606936</ele>
        <time>2022-11-14T10:17:03.156Z</time>
      </trkpt>
      <trkpt lat="45.607786" lon="7.523882">
        <ele>2445.611148</ele>
        <time>2022-11-14T10:17:49.439Z</time>
      </trkpt>
      <trkpt lat="45.607652" lon="7.523402">
        <ele>2449.706407</ele>
        <time>2022-11-14T10:18:50.756Z</time>
      </trkpt>
      <trkpt lat="45.607689" lon="7.522343">
        <ele>2457.481079</ele>
        <time>2022-11-14T10:20:51.674Z</time>
      </trkpt>
      <trkpt lat="45.607326" lon="7.521073">
        <ele>2466.870074</ele>
        <time>2022-11-14T10:23:30.633Z</time>
      </trkpt>
      <trkpt lat="45.607129" lon="7.520064">
        <ele>2474.275223</ele>
        <time>2022-11-14T10:25:34.175Z</time>
      </trkpt>
      <trkpt lat="45.606911" lon="7.519756">
        <ele>2477.514637</ele>
        <time>2022-11-14T10:26:26.309Z</time>
      </trkpt>
      <trkpt lat="45.606909" lon="7.519619">
        <ele>2478.527770</ele>
        <time>2022-11-14T10:26:41.165Z</time>
      </trkpt>
      <trkpt lat="45.606915" lon="7.519562">
        <ele>2478.953945</ele>
        <time>2022-11-14T10:26:51.302Z</time>
      </trkpt>
      <trkpt lat="45.606827" lon="7.519506">
        <ele>2479.971977</ele>
        <time>2022-11-14T10:27:06.872Z</time>
      </trkpt>
      <trkpt lat="45.606817" lon="7.519432">
        <ele>2480.529212</ele>
        <time>2022-11-14T10:27:15.473Z</time>
      </trkpt>
      <trkpt lat="45.607025" lon="7.519415">
        <ele>2482.731062</ele>
        <time>2022-11-14T10:27:50.587Z</time>
      </trkpt>
      <trkpt lat="45.607357" lon="7.519240">
        <ele>2486.470778</ele>
        <time>2022-11-14T10:28:49.312Z</time>
      </trkpt>
      <trkpt lat="45.607658" lon="7.519208">
        <ele>2489.660699</ele>
        <time>2022-11-14T10:29:40.226Z</time>
      </trkpt>
      <trkpt lat="45.607743" lon="7.519112">
        <ele>2490.974860</ele>
        <time>2022-11-14T10:30:02.770Z</time>
      </trkpt>
      <trkpt lat="45.607732" lon="7.518401">
        <ele>2497.515020</ele>
        <time>2022-11-14T10:31:29.043Z</time>
      </trkpt>
      <trkpt lat="45.607792" lon="7.517633">
        <ele>2504.621672</ele>
        <time>2022-11-14T10:33:07.461Z</time>
      </trkpt>
      <trkpt lat="45.607747" lon="7.517356">
        <ele>2507.236827</ele>
        <time>2022-11-14T10:33:42.433Z</time>
      </trkpt>
      <trkpt lat="45.607768" lon="7.517246">
        <ele>2508.285410</ele>
        <time>2022-11-14T10:34:01.061Z</time>
      </trkpt>
      <trkpt lat="45.607674" lon="7.516847">
        <ele>2512.157213</ele>
        <time>2022-11-14T10:35:00.084Z</time>
      </trkpt>
      <trkpt lat="45.607721" lon="7.516662">
        <ele>2513.986218</ele>
        <time>2022-11-14T10:35:32.562Z</time>
      </trkpt>
      <trkpt lat="45.607334" lon="7.515841">
        <ele>2523.907518</ele>
        <time>2022-11-14T10:38:02.614Z</time>
      </trkpt>
      <trkpt lat="45.606994" lon="7.515327">
        <ele>2530.996807</ele>
        <time>2022-11-14T10:39:47.387Z</time>
      </trkpt>
      <trkpt lat="45.606831" lon="7.514771">
        <ele>2537.038408</ele>
        <time>2022-11-14T10:41:05.840Z</time>
      </trkpt>
      <trkpt lat="45.606387" lon="7.514074">
        <ele>2543.238927</ele>
        <time>2022-11-14T10:42:54.854Z</time>
      </trkpt>
      <trkpt lat="45.606281" lon="7.513984">
        <ele>2544.181622</ele>
        <time>2022-11-14T10:43:14.313Z</time>
      </trkpt>
      <trkpt lat="45.606139" lon="7.513877">
        <ele>2545.409006</ele>
        <time>2022-11-14T10:43:40.112Z</time>
      </trkpt>
      <trkpt lat="45.606105" lon="7.513751">
        <ele>2546.131402</ele>
        <time>2022-11-14T10:43:54.595Z</time>
      </trkpt>
      <trkpt lat="45.606087" lon="7.513370">
        <ele>2548.174081</ele>
        <time>2022-11-14T10:44:36.274Z</time>
      </trkpt>
      <trkpt lat="45.605906" lon="7.512556">
        <ele>2552.742970</ele>
        <time>2022-11-14T10:46:04.891Z</time>
      </trkpt>
      <trkpt lat="45.605627" lon="7.512131">
        <ele>2555.408674</ele>
        <time>2022-11-14T10:47:05.935Z</time>
      </trkpt>
      <trkpt lat="45.605533" lon="7.511839">
        <ele>2556.827574</ele>
        <time>2022-11-14T10:47:39.193Z</time>
      </trkpt>
      <trkpt lat="45.605332" lon="7.511472">
        <ele>2558.885031</ele>
        <time>2022-11-14T10:48:26.959Z</time>
      </trkpt>
      <trkpt lat="45.604899" lon="7.511110">
        <ele>2562.050203</ele>
        <time>2022-11-14T10:49:43.112Z</time>
      </trkpt>
      <trkpt lat="45.604873" lon="7.510533">
        <ele>2564.602579</ele>
        <time>2022-11-14T10:50:46.832Z</time>
      </trkpt>
      <trkpt lat="45.604959" lon="7.510333">
        <ele>2566.250667</ele>
        <time>2022-11-14T10:51:13.167Z</time>
      </trkpt>
      <trkpt lat="45.604964" lon="7.510211">
        <ele>2567.115404</ele>
        <time>2022-11-14T10:51:26.892Z</time>
      </trkpt>
      <trkpt lat="45.604780" lon="7.509817">
        <ele>2570.467380</ele>
        <time>2022-11-14T10:52:21.136Z</time>
      </trkpt>
      <trkpt lat="45.604538" lon="7.509088">
        <ele>2576.176971</ele>
        <time>2022-11-14T10:53:55.365Z</time>
      </trkpt>
      <trkpt lat="45.604426" lon="7.508888">
        <ele>2577.989693</ele>
        <time>2022-11-14T10:54:24.789Z</time>
      </trkpt>
      <trkpt lat="45.604041" lon="7.508705">
        <ele>2582.093307</ele>
        <time>2022-11-14T10:55:33.120Z</time>
      </trkpt>
      <trkpt lat="45.603625" lon="7.508316">
        <ele>2589.204005</ele>
        <time>2022-11-14T10:57:12.275Z</time>
      </trkpt>
      <trkpt lat="45.603489" lon="7.507961">
        <ele>2593.453497</ele>
        <time>2022-11-14T10:58:10.443Z</time>
      </trkpt>
      <trkpt lat="45.603373" lon="7.507800">
        <ele>2595.880013</ele>
        <time>2022-11-14T10:58:47.659Z</time>
      </trkpt>
      <trkpt lat="45.603229" lon="7.507900">
        <ele>2598.282613</ele>
        <time>2022-11-14T10:59:19.245Z</time>
      </trkpt>
      <trkpt lat="45.603109" lon="7.507544">
        <ele>2602.431620</ele>
        <time>2022-11-14T11:00:22.188Z</time>
      </trkpt>
      <trkpt lat="45.603043" lon="7.507583">
        <ele>2603.503404</ele>
        <time>2022-11-14T11:00:36.105Z</time>
      </trkpt>
      <trkpt lat="45.602825" lon="7.507156">
        <ele>2609.053449</ele>
        <time>2022-11-14T11:01:54.837Z</time>
      </trkpt>
      <trkpt lat="45.602743" lon="7.506528">
        <ele>2614.861655</ele>
        <time>2022-11-14T11:03:26.744Z</time>
      </trkpt>
      <trkpt lat="45.602945" lon="7.505562">
        <ele>2623.848100</ele>
        <time>2022-11-14T11:05:42.565Z</time>
      </trkpt>
      <trkpt lat="45.603031" lon="7.505401">
        <ele>2625.653550</ele>
        <time>2022-11-14T11:06:08.284Z</time>
      </trkpt>
      <trkpt lat="45.603318" lon="7.505551">
        <ele>2629.546647</ele>
        <time>2022-11-14T11:06:59.832Z</time>
      </trkpt>
      <trkpt lat="45.603062" lon="7.504973">
        <ele>2635.689993</ele>
        <time>2022-11-14T11:08:18.217Z</time>
      </trkpt>
      <trkpt lat="45.603046" lon="7.504823">
        <ele>2637.063718</ele>
        <time>2022-11-14T11:08:35.264Z</time>
      </trkpt>
      <trkpt lat="45.603435" lon="7.505112">
        <ele>2642.736975</ele>
        <time>2022-11-14T11:09:47.735Z</time>
      </trkpt>
      <trkpt lat="45.603338" lon="7.504651">
        <ele>2647.095307</ele>
        <time>2022-11-14T11:10:47.866Z</time>
      </trkpt>
      <trkpt lat="45.603210" lon="7.504335">
        <ele>2650.401126</ele>
        <time>2022-11-14T11:11:40.440Z</time>
      </trkpt>
      <trkpt lat="45.602712" lon="7.503763">
        <ele>2660.410679</ele>
        <time>2022-11-14T11:13:59.542Z</time>
      </trkpt>
      <trkpt lat="45.602165" lon="7.502907">
        <ele>2677.755708</ele>
        <time>2022-11-14T11:17:25.832Z</time>
      </trkpt>
      <trkpt lat="45.601795" lon="7.502585">
        <ele>2687.019342</ele>
        <time>2022-11-14T11:19:32.783Z</time>
      </trkpt>
      <trkpt lat="45.601675" lon="7.502413">
        <ele>2690.653573</ele>
        <time>2022-11-14T11:20:20.055Z</time>
      </trkpt>
      <trkpt lat="45.601562" lon="7.501652">
        <ele>2701.399930</ele>
        <time>2022-11-14T11:22:41.008Z</time>
      </trkpt>
      <trkpt lat="45.601430" lon="7.501169">
        <ele>2708.273393</ele>
        <time>2022-11-14T11:24:05.422Z</time>
      </trkpt>
      <trkpt lat="45.601784" lon="7.501486">
        <ele>2716.187827</ele>
        <time>2022-11-14T11:25:38.918Z</time>
      </trkpt>
      <trkpt lat="45.601861" lon="7.501714">
        <ele>2719.543713</ele>
        <time>2022-11-14T11:26:18.279Z</time>
      </trkpt>
      <trkpt lat="45.601951" lon="7.501786">
        <ele>2721.497765</ele>
        <time>2022-11-14T11:26:40.177Z</time>
      </trkpt>
      <trkpt lat="45.601912" lon="7.501397">
        <ele>2726.706748</ele>
        <time>2022-11-14T11:27:43.552Z</time>
      </trkpt>
      <trkpt lat="45.601644" lon="7.500642">
        <ele>2737.854286</ele>
        <time>2022-11-14T11:29:58.607Z</time>
      </trkpt>
      <trkpt lat="45.601228" lon="7.500103">
        <ele>2748.407629</ele>
        <time>2022-11-14T11:31:58.553Z</time>
      </trkpt>
      <trkpt lat="45.601158" lon="7.499875">
        <ele>2751.681832</ele>
        <time>2022-11-14T11:32:39.490Z</time>
      </trkpt>
      <trkpt lat="45.600980" lon="7.499653">
        <ele>2756.122036</ele>
        <time>2022-11-14T11:33:42.181Z</time>
      </trkpt>
      <trkpt lat="45.600525" lon="7.499442">
        <ele>2762.345088</ele>
        <time>2022-11-14T11:35:51.363Z</time>
      </trkpt>
      <trkpt lat="45.599417" lon="7.498300">
        <ele>2762.345088</ele>
        <time>2022-11-14T11:41:18.648Z</time>
      </trkpt>
      <trkpt lat="45.599453" lon="7.498233">
        <ele>2762.345088</ele>
        <time>2022-11-14T11:41:29.234Z</time>
      </trkpt>
      <trkpt lat="45.599379" lon="7.498160">
        <ele>2762.345088</ele>
        <time>2022-11-14T11:41:47.409Z</time>
      </trkpt>
    </trkseg>
  </trk>
</gpx>